sat.trackr.live / text

‹ back to catalog

STARLINK-37573

NORAD 69422 · 2026-126C

PAYLOAD ACTIVE UNKNOWN

§ Identity

Operator
Country
US
Launch date
2026-06-07
Launch site
AFWTR
Launch vehicle
Mass (kg)
RCS (m²)

Purposes: comms

External: N2YO · Heavens-Above · Gunter

§ Orbital elements

Epoch: 2026-09-18T02:55:47.983296Z

Period
93.91 min
Inclination
97.2847°
Eccentricity
0.0001607
Mean motion
15.33442213 rev/d
Perigee alt
464.5 km
Apogee alt
466.7 km
Semi-major
6,843.7 km
B*
3.1286e-4
RAAN
122.4473°
Arg perigee
95.9771°
Mean anomaly
264.1655°
Rev number
1,716

§ Raw data

STARLINK-375731 69422U 26126C   26261.12208314  .00010038  00000+0  31286-3 0  99922 69422  97.2847 122.4473 0001607  95.9771 264.1655 15.33442213 17169

JSON: /api/v1/satellites/69422 · /tle

For live sub-satellite position, see the globe view (requires WebGL).

§ Visibility from observer

Set your observer location to see the next 7 days of passes ≥ 10°. The values pass through the URL so the page stays shareable.

No JS? Fill the form by hand. The geolocation button needs JavaScript.